Location: Ford County Road and Bridge Department
(37.7686°N, 99.9762°W)
Time: 21:44:31
(UTC+00:00)

ISS - Visible Passes

Search period start: 06 April 2020 00:00
Search period end: 16 April 2020 00:00
Orbit: 418 x 423 km, 51.6° (Epoch: 07 April)

Date Brightness Start Highest point End Pass type
(mag) Time Alt. Az. Time Alt. Az. Time Alt. Az.
06 Apr -2.3 02:52:02 10° WNW 02:55:00 29° SW 02:55:19 29° SW visible
07 Apr -3.2 02:04:39 10° WNW 02:07:56 53° SW 02:10:26 16° SSE visible
09 Apr -1.1 02:07:59 10° W 02:10:10 16° SW 02:12:19 10° S visible
